Date String (YYYY-MM-DD hh:mm:ss) UTC,Instrument flags,absolute air pressure of the measurement (hPa),sample flow rate (lpm),inlet stack bypass flow (lpm),air temperature of the measurement (°C),ambient temperature measured by the external sensor (°C),aerosol sample conditioner tube jacket temperature (°C),OPC LED temperature (°C),internal box temperature (°C),relative humidity of the measurement (%),span deviation,mass concentration of particles derived from Lorenz-Mie calculation of OPC scattering (μg/m³),mass concentration of particles derived from Lorenz-Mie calculation of OPC scattering (μg/m³),mass concentration of particles derived from Lorenz-Mie calculation of OPC scattering (μg/m³)
DateTimeUTC,F1_M11,P_M11,Q1_M11,Q2_M11,T1_M11,T2_M11,T3_M11,T4_M11,T5_M11,U1_M11,ZSPAN_M11,X0_M11,X2_M11,X1_M11
2024-05-07 05:00:00,SystemResetWarning,0815.2,5.00,000.00,021.4,020.6,000.0,029.6,023.0,012.5,0000.0,0004.69,0001.28,0000.56
2024-05-07 05:01:00,SystemResetWarning,0815.5,5.00,000.00,021.4,020.6,000.0,029.6,023.0,012.3,0000.0,0004.83,0001.31,0000.56
2024-05-07 05:02:00,SystemResetWarning,0815.3,5.00,000.00,021.4,020.6,000.0,029.6,023.0,012.8,0000.0,0005.01,0001.36,0000.56
2024-05-07 05:03:00,SystemResetWarning,0815.2,5.00,000.00,021.4,020.7,000.0,029.6,023.0,013.0,0000.0,0004.82,0001.40,0000.56
2024-05-07 05:04:00,SystemResetWarning,0815.3,5.00,000.00,021.4,020.7,000.0,029.6,023.0,012.9,0000.0,0004.36,0001.45,0000.56
2024-05-07 05:05:00,SystemResetWarning,0815.2,5.00,000.00,021.4,020.6,000.0,029.6,023.0,013.0,0000.0,0005.38,0001.46,0000.56
2024-05-07 05:06:00,SystemResetWarning,0815.3,5.00,000.00,021.4,020.6,000.0,029.6,023.0,013.1,0000.0,0005.42,0001.44,0000.57
2024-05-07 05:07:00,SystemResetWarning,0815.4,5.00,000.00,021.4,020.7,000.0,029.6,023.0,013.3,0000.0,0005.46,0001.45,0000.57
2024-05-07 05:08:00,SystemResetWarning,0815.3,5.00,000.00,021.4,020.7,000.0,029.6,023.0,013.3,0000.0,0005.61,0001.50,0000.56
2024-05-07 05:09:00,SystemResetWarning,0815.3,5.00,000.00,021.4,020.7,000.0,029.6,023.0,013.0,0000.0,0005.35,0001.47,0000.55
2024-05-07 05:10:00,SystemResetWarning,0815.1,4.99,000.00,021.4,020.7,000.0,029.5,023.0,013.2,0000.0,0004.92,0001.48,0000.54
2024-05-07 05:11:00,SystemResetWarning,0815.1,4.99,000.00,021.4,020.7,000.0,029.5,023.1,013.0,0000.0,0005.38,0001.46,0000.54
2024-05-07 05:12:00,SystemResetWarning,0815.1,5.00,000.00,021.4,020.7,000.0,029.5,023.1,012.8,0000.0,0006.29,0001.44,0000.54
2024-05-07 05:13:00,SystemResetWarning,0815.1,5.01,000.00,021.4,020.7,000.0,029.6,023.1,013.0,0000.0,0007.26,0001.41,0000.53
2024-05-07 05:14:00,SystemResetWarning,0814.9,5.01,000.00,021.4,020.7,000.0,029.6,023.1,013.1,0000.0,0007.17,0001.40,0000.52
2024-05-07 05:15:00,SystemResetWarning,0815.2,5.00,000.00,021.4,020.7,000.0,029.6,023.1,012.7,0000.0,0007.33,0001.33,0000.51
2024-05-07 05:16:00,SystemResetWarning,0815.4,5.01,000.00,021.4,020.7,000.0,029.6,023.1,012.5,0000.0,0006.35,0001.28,0000.50
2024-05-07 05:17:00,SystemResetWarning,0815.3,5.00,000.00,021.4,020.7,000.0,029.6,023.0,012.6,0000.0,0006.12,0001.27,0000.49
2024-05-07 05:18:00,SystemResetWarning,0815.3,5.00,000.00,021.4,020.7,000.0,029.6,023.0,012.6,0000.0,0006.03,0001.24,0000.48
2024-05-07 05:19:00,SystemResetWarning,0815.2,5.00,000.00,021.4,020.7,000.0,029.6,023.1,012.7,0000.0,0006.34,0001.22,0000.48
2024-05-07 05:20:00,SystemResetWarning,0815.3,5.00,000.00,021.4,020.7,000.0,029.6,023.1,012.9,0000.0,0006.32,0001.21,0000.48
2024-05-07 05:21:00,SystemResetWarning,0815.3,5.01,000.00,021.4,020.7,000.0,029.6,023.0,012.9,0000.0,0006.21,0001.17,0000.48
2024-05-07 05:22:00,SystemResetWarning,0815.4,5.00,000.00,021.4,020.7,000.0,029.6,023.1,012.8,0000.0,0006.37,0001.18,0000.50
2024-05-07 05:23:00,SystemResetWarning,0815.2,5.00,000.00,021.4,020.7,000.0,029.6,023.0,012.7,0000.0,0006.07,0001.15,0000.49
2024-05-07 05:24:00,SystemResetWarning,0815.2,5.00,000.00,021.4,020.7,000.0,029.5,023.0,012.7,0000.0,0004.63,0001.11,0000.50
2024-05-07 05:25:00,SystemResetWarning,0815.3,5.00,000.00,021.4,020.7,000.0,029.5,023.0,012.7,0000.0,0004.77,0001.10,0000.50
2024-05-07 05:26:00,SystemResetWarning,0815.3,5.00,000.00,021.4,020.7,000.0,029.5,023.0,012.9,0000.0,0005.18,0001.11,0000.51
2024-05-07 05:27:00,SystemResetWarning,0815.3,4.99,000.00,021.4,020.8,000.0,029.5,023.1,013.0,0000.0,0005.58,0001.16,0000.51
2024-05-07 05:28:00,SystemResetWarning,0815.5,5.00,000.00,021.4,020.8,000.0,029.5,023.1,013.0,0000.0,0006.26,0001.15,0000.51
2024-05-07 05:29:00,SystemResetWarning,0815.3,4.99,000.00,021.5,020.8,000.0,029.6,023.1,012.9,0000.0,0006.58,0001.21,0000.51
2024-05-07 05:30:00,SystemResetWarning,0815.3,5.00,000.00,021.5,020.8,000.0,029.6,023.1,012.7,0000.0,0006.14,0001.20,0000.52
2024-05-07 05:31:00,SystemResetWarning,0815.3,5.02,000.00,021.5,020.8,000.0,029.6,023.1,012.3,0000.0,0006.11,0001.19,0000.52
2024-05-07 05:32:00,SystemResetWarning,0815.3,5.00,000.00,021.5,020.8,000.0,029.6,023.1,012.3,0000.0,0006.12,0001.21,0000.52
2024-05-07 05:33:00,SystemResetWarning,0815.2,5.00,000.00,021.5,020.8,000.0,029.6,023.1,012.4,0000.0,0005.77,0001.25,0000.51
2024-05-07 05:34:00,SystemResetWarning,0815.1,4.99,000.00,021.5,020.8,000.0,029.6,023.1,012.3,0000.0,0005.25,0001.29,0000.51
2024-05-07 05:35:00,SystemResetWarning,0815.3,5.00,000.00,021.5,020.7,000.0,029.6,023.1,012.3,0000.0,0006.57,0001.30,0000.51
2024-05-07 05:36:00,SystemResetWarning,0815.3,5.01,000.00,021.5,020.7,000.0,029.6,023.1,012.3,0000.0,0007.20,0001.33,0000.51
2024-05-07 05:37:00,SystemResetWarning,0815.2,5.00,000.00,021.5,020.7,000.0,029.6,023.1,012.2,0000.0,0005.96,0001.30,0000.51
2024-05-07 05:38:00,SystemResetWarning,0815.2,4.98,000.00,021.5,020.7,000.0,029.6,023.1,012.0,0000.0,0005.38,0001.24,0000.51
2024-05-07 05:39:00,SystemResetWarning,0815.2,5.00,000.00,021.5,020.7,000.0,029.6,023.1,012.0,0000.0,0004.95,0001.26,0000.52
2024-05-07 05:40:00,SystemResetWarning,0815.4,5.01,000.00,021.5,020.7,000.0,029.6,023.1,012.2,0000.0,0004.71,0001.22,0000.52
2024-05-07 05:41:00,SystemResetWarning,0815.2,5.01,000.00,021.4,020.7,000.0,029.6,023.1,012.2,0000.0,0004.83,0001.23,0000.51
2024-05-07 05:42:00,SystemResetWarning,0815.2,4.99,000.00,021.4,020.7,000.0,029.6,023.0,012.3,0000.0,0004.82,0001.23,0000.51
2024-05-07 05:43:00,SystemResetWarning,0815.3,4.99,000.00,021.4,020.7,000.0,029.6,023.0,012.5,0000.0,0005.09,0001.24,0000.51
2024-05-07 05:44:00,SystemResetWarning,0815.5,5.00,000.00,021.4,020.7,000.0,029.6,023.0,012.7,0000.0,0005.15,0001.23,0000.51
2024-05-07 05:45:00,SystemResetWarning,0815.4,5.01,000.00,021.4,020.7,000.0,029.6,023.0,012.9,0000.0,0005.17,0001.19,0000.52
2024-05-07 05:46:00,SystemResetWarning,0815.4,5.01,000.00,021.4,020.7,000.0,029.6,023.0,012.4,0000.0,0004.34,0001.19,0000.53
2024-05-07 05:47:00,SystemResetWarning,0815.4,5.00,000.00,021.4,020.7,000.0,029.6,023.0,012.5,0000.0,0003.78,0001.15,0000.53
2024-05-07 05:48:00,SystemResetWarning,0815.2,5.00,000.00,021.4,020.7,000.0,029.6,023.1,012.3,0000.0,0003.89,0001.21,0000.54
2024-05-07 05:49:00,SystemResetWarning,0815.1,5.00,000.00,021.4,020.7,000.0,029.6,023.1,012.4,0000.0,0004.12,0001.26,0000.55
2024-05-07 05:50:00,SystemResetWarning,0815.2,5.00,000.00,021.4,020.7,000.0,029.6,023.1,012.3,0000.0,0004.07,0001.24,0000.55
2024-05-07 05:51:00,SystemResetWarning,0815.2,5.01,000.00,021.4,020.7,000.0,029.6,023.0,012.1,0000.0,0004.42,0001.26,0000.56
2024-05-07 05:52:00,SystemResetWarning,0815.3,5.01,000.00,021.4,020.7,000.0,029.6,023.1,012.2,0000.0,0004.23,0001.23,0000.57
2024-05-07 05:53:00,SystemResetWarning,0815.4,5.00,000.00,021.4,020.7,000.0,029.6,023.1,012.2,0000.0,0004.45,0001.34,0000.58
2024-05-07 05:54:00,SystemResetWarning,0815.1,4.99,000.00,021.4,020.7,000.0,029.6,023.1,012.2,0000.0,0004.44,0001.39,0000.59
2024-05-07 05:55:00,SystemResetWarning,0815.3,5.00,000.00,021.4,020.7,000.0,029.6,023.0,011.6,0000.0,0004.12,0001.35,0000.60
2024-05-07 05:56:00,SystemResetWarning,0815.2,5.00,000.00,021.4,020.7,000.0,029.6,023.1,011.6,0000.0,0004.15,0001.36,0000.60
2024-05-07 05:57:00,SystemResetWarning,0815.4,5.00,000.00,021.4,020.7,000.0,029.6,023.1,011.9,0000.0,0003.55,0001.38,0000.61
2024-05-07 05:58:00,SystemResetWarning,0815.3,4.99,000.00,021.4,020.7,000.0,029.6,023.1,011.8,0000.0,0003.43,0001.39,0000.61
2024-05-07 05:59:00,SystemResetWarning,0815.5,5.00,000.00,021.4,020.7,000.0,029.6,023.1,011.9,0000.0,0003.40,0001.38,0000.63
